Location: Castiglione Fibocchi
(43.5333°N, 11.7667°E)
Time: 13:33:00
(UTC+00:00)

Cosmos 1953 Rocket - Pass Details

Date: 15 August 2020
Orbit: 603 x 635 km, 82.5° (Epoch: 25 September)

Event Time Altitude Azimuth Distance (km) Brightness Sun altitude
Rises 03:00:01 0° 345° (NNW) 2,942 7.3 -13.4°
Reaches altitude 10° 03:02:21 10° 338° (NNW) 2,026 6.4 -13.0°
Maximum altitude 03:06:36 43° 268° (W) 890 4.0 -12.4°
Drops below altitude 10° 03:10:47 10° 197° (SSW) 1,996 5.7 -11.7°
Enters shadow 03:11:08 - 196° (SSW) 2,128 5.9 -11.7°
